Current metar :KSAR 282135Z AUTO 24003KT 10SM SCT065 34/26 A2993 RMK AO2 LTG DSNT N AND NW T03350256

Sparta Community Airport (KSAR)                                                                                                                                                                              

"Hunter Field," named after the legendary Hunter brothers, is located in the southwestern corner of the state, on the north side of Sparta, Illinois.  Services available include 24/7 fueling, courtesy cars, a recently updated terminal building with lounges, satellite TV, and free Wifi access, as well as a full service FBO. Sparta Aero Services Inc.,   Business hours are Monday through Saturday 8:00 am to 5:00 pm.  For assistance outside of these hours please call ahead.

 As of Jan 1, 2015, the listing in the Airport Facilities Directory (A/FD) can be found here.

 

Location

FAA Identifier:  SAR
Lat/Long:  38-08-56.2000N / 089-41-55.6000W
38-08.936667N / 089-41.926667W
38.1489444 / -89.6987778
(estimated)
Elevation:  538 ft. / 164.0 m (surveyed)
Variation:  01E (1990)
From city:  2 miles N of SPARTA, IL
Time zone:  UTC -5 (UTC -6 during Standard Time)
Zip code:  62286
   
   
   

Airport ownership and management

   
Manager: 
 Scott Marquardt
Address: 
 1800 N. Market Street
   Sparta, IL 62286
   
Phone:    (618) 443-5321
Fax:    (618) 443-3968